Temperature
6 7 7 7 7 6 6 7 8 8 8 8 7 6 5 4 3 3 2 2 2 2 2 2 2 2 2 3 3 3 3 3 3 3 3 4 4 4 4 5 5 5 5 5
6 6 6 6 7 7 6 7 7 7 7 8 7 6 5 4 4 3 3 2 2 2 2 2 2 2 2 2 3 3 3 3 3 3 3 3 3 4 4 4 4 4 4 4
8 7 7 8 8 7 7 7 7 7 8 7 6 6 5 4 3 3 2 2 2 2 2 2 2 2 2 2 2 2 2 2 3 3 3 3 3 3 3 3 3 3 3 3
7 8 8 9 7 7 7 7 7 7 7 7 6 5 5 4 3 3 3 2 2 2 2 2 2 2 2 2 2 2 2 2 2 2 2 2 2 3 3 3 3 3 3 3
6 8 9 9 7 6 6 7 7 7 7 6 4 4 5 4 4 3 3 3 2 2 2 2 2 2 2 2 2 2 2 2 2 2 2 2 2 2 2 2 2 2 2 2
6 7 8 9 7 5 7 8 7 6 6 5 4 7 7 4 4 3 3 3 2 2 2 2 2 2 1 2 1 1 1 1 1 1 1 1 1 1 1 1 1 1 1 1
6 6 8 8 5 6 8 9 6 5 5 4 5 6 5 4 4 3 3 2 2 2 2 2 1 1 1 1 1 1 1 1 1 1 1 1 1 1 1 1 1 1 1 1
6 6 8 6 5 7 8 6 5 5 4 4 4 4 4 4 4 3 3 2 2 2 1 1 1 1 1 1 1 1 1 1 1 1 1 0 0 0 0 0 0 0 0 0
7 8 7 5 5 5 5 4 4 4 4 4 4 4 4 3 3 3 2 2 2 1 1 1 1 1 1 1 0 0 0 0 0 0 0 -0 -0 -0 -0 -1 -1 -1 -1 -1
5 6 5 4 4 5 5 4 4 4 4 4 4 4 4 3 3 3 2 2 2 1 1 1 1 1 0 0 0 -0 -0 -0 -0 -0 -0 -0 -1 -1 -1 -1 -1 -2 -2 -2
4 6 5 5 5 5 5 4 4 4 4 4 4 4 4 3 3 3 2 2 2 1 1 1 1 0 0 -0 -0 -0 -0 -1 -1 -1 -1 -1 -1 -1 -1 -2 -2 -2 -2 -2
7 6 5 6 5 5 5 5 4 4 4 4 4 4 3 3 3 2 2 2 2 1 1 1 0 0 -0 -0 -0 -1 -1 -1 -1 -1 -1 -1 -1 -1 -1 -2 -2 -2 -2 -2
4 4 4 4 4 4 4 4 4 4 4 4 3 3 3 3 2 2 2 2 1 1 1 0 0 0 -0 -0 -1 -1 -1 -1 -1 -1 -2 -2 -2 -2 -2 -2 -2 -2 -2 -2
3 3 3 4 4 4 4 4 3 3 3 3 3 3 3 2 2 2 2 1 1 1 0 0 -0 -0 -0 -1 -1 -1 -1 -1 -2 -2 -2 -2 -2 -2 -2 -2 -2 -2 -2 -2
3 3 3 3 3 4 3 3 3 3 3 3 3 2 2 2 2 2 1 1 1 0 0 -0 -0 -0 -1 -1 -1 -1 -2 -2 -2 -2 -2 -2 -3 -3 -3 -3 -3 -3 -3 -2
3 3 3 3 3 3 3 3 3 3 3 2 2 2 2 2 1 1 1 1 0 0 -0 -0 -0 -1 -1 -1 -2 -2 -2 -2 -2 -2 -2 -3 -3 -3 -3 -3 -3 -3 -3 -3
2 2 2 2 3 3 3 3 3 2 2 2 2 2 1 1 1 1 1 0 0 -0 -0 -1 -1 -1 -1 -2 -2 -2 -2 -3 -3 -3 -3 -3 -3 -4 -4 -4 -4 -4 -4 -4
2 3 3 3 3 3 3 3 2 2 2 2 1 1 1 1 1 1 0 -0 -0 -0 -1 -1 -1 -2 -2 -2 -2 -3 -3 -3 -3 -3 -3 -4 -4 -4 -4 -4 -4 -4 -4 -4
2 2 3 3 2 2 2 2 2 2 2 1 1 1 1 0 0 -0 -0 -1 -1 -1 -1 -1 -2 -2 -2 -2 -3 -3 -3 -3 -4 -4 -4 -4 -4 -4 -4 -4 -4 -4 -4 -4
3 2 2 2 2 2 2 2 1 1 1 1 0 0 0 -0 -0 -1 -1 -1 -1 -1 -1 -2 -2 -2 -3 -3 -3 -3 -4 -4 -4 -4 -4 -4 -4 -4 -4 -4 -5 -5 -5 -5
2 2 2 2 2 2 2 1 1 1 1 0 0 -0 -0 -0 -1 -1 -1 -1 -1 -2 -2 -2 -3 -3 -3 -3 -4 -4 -4 -4 -4 -4 -5 -5 -5 -5 -5 -5 -5 -5 -5 -5
2 2 2 2 2 1 1 1 1 0 0 -0 -0 -1 -1 -1 -1 -1 -2 -2 -2 -2 -2 -3 -3 -3 -3 -4 -4 -4 -4 -5 -5 -5 -5 -5 -5 -5 -5 -5 -5 -5 -5 -6
2 2 1 1 1 1 1 0 0 -0 -0 -0 -1 -1 -1 -1 -2 -2 -2 -2 -2 -2 -3 -3 -3 -4 -4 -4 -4 -4 -5 -5 -5 -5 -5 -5 -5 -5 -5 -5 -6 -6 -6 -6
2 1 1 1 0 0 0 0 -0 -0 -1 -1 -1 -1 -2 -2 -2 -2 -2 -3 -3 -3 -3 -3 -4 -4 -4 -4 -5 -5 -5 -5 -5 -5 -6 -6 -6 -6 -6 -6 -6 -6 -6 -6
1 1 1 0 0 -0 -0 -1 -1 -1 -1 -1 -1 -2 -2 -2 -2 -3 -3 -3 -3 -3 -4 -4 -4 -4 -5 -5 -5 -5 -5 -5 -6 -6 -6 -6 -6 -6 -6 -6 -6 -6 -6 -6
1 0 0 -0 -0 -1 -1 -1 -2 -2 -2 -2 -2 -2 -2 -3 -3 -3 -3 -4 -4 -4 -4 -4 -5 -5 -5 -5 -5 -5 -6 -6 -6 -6 -6 -6 -6 -6 -6 -6 -6 -6 -7 -7
0 -0 -0 -1 -1 -1 -1 -2 -2 -2 -2 -2 -3 -3 -3 -3 -3 -3 -4 -4 -4 -4 -4 -5 -5 -5 -5 -6 -6 -6 -6 -6 -6 -6 -6 -6 -6 -7 -7 -7 -7 -7 -7 -7
Wind_Speed
7 7 7 8 8 8 8 7 6 5 6 7 6 5 4 3 3 3 4 5 6 7 7 7 8 8 8 8 8 8 8 8 8 7 7 6 6 6 5 5 4 3 2 2
4 3 5 8 9 9 9 8 9 9 9 5 3 3 3 3 3 3 4 5 5 6 6 7 7 7 7 7 7 7 7 7 7 7 7 7 7 7 6 6 6 5 4 2
3 5 6 5 5 7 5 6 6 7 5 2 3 5 5 4 4 3 3 4 5 5 5 6 6 6 6 6 6 6 6 7 7 7 7 7 7 7 7 7 6 5 4 3
4 5 3 1 1 3 5 5 7 7 7 5 5 5 5 4 4 4 3 3 4 4 5 5 5 5 5 5 5 6 6 7 7 7 7 7 7 7 7 6 5 4 4 4
2 4 6 2 1 2 3 4 4 7 7 5 2 3 4 5 5 5 4 4 3 4 4 4 4 4 4 4 4 5 6 6 7 7 7 7 7 7 7 6 5 4 4 5
2 3 3 1 1 1 2 3 1 4 5 4 3 3 3 3 4 4 3 3 3 3 3 3 4 4 3 3 4 5 5 6 6 6 6 6 6 6 6 5 5 4 4 4
5 5 6 2 1 3 2 3 2 3 5 6 6 5 1 3 4 4 3 3 2 2 2 3 3 3 3 3 4 5 5 5 5 6 6 5 5 5 5 5 5 4 4 5
5 5 5 2 4 4 3 3 3 4 5 6 6 4 2 4 4 4 3 3 3 3 3 3 3 3 3 3 4 4 5 5 5 5 5 5 5 5 6 5 5 5 5 5
6 5 1 4 5 4 3 5 4 5 5 5 5 5 5 5 5 5 4 4 3 3 3 3 3 3 4 4 4 4 4 5 5 5 5 5 5 5 5 5 4 5 5 5
7 9 7 8 8 8 7 7 7 6 5 5 6 5 5 5 5 5 5 4 3 3 4 4 4 4 4 4 4 4 4 4 4 4 5 5 4 4 4 4 4 5 5 6
8 9 8 6 5 6 7 6 6 5 5 6 6 6 6 6 6 5 5 4 4 4 5 5 4 4 4 4 3 4 4 4 4 4 4 4 4 4 5 4 5 6 5 5
7 5 4 5 4 5 5 6 6 6 5 5 6 7 6 6 6 5 5 5 5 5 5 5 4 5 4 4 4 4 4 4 4 4 4 4 4 5 5 6 7 7 7 6
7 4 6 8 8 6 6 7 6 7 7 7 6 6 6 6 5 5 6 6 6 6 6 5 5 5 4 3 4 4 4 4 4 4 4 4 4 5 6 6 6 6 7 8
9 6 7 7 6 6 6 6 6 6 6 6 5 5 5 5 5 6 7 7 6 6 6 5 5 5 4 3 4 4 4 4 4 4 4 4 4 4 5 5 6 5 6 7
9 9 9 7 7 7 6 5 5 5 5 4 4 5 5 6 6 7 6 5 5 5 5 5 5 5 3 4 4 4 4 4 4 4 4 4 4 4 4 5 5 5 5 5
6 7 8 8 8 7 6 5 6 6 5 5 5 6 6 6 6 5 5 5 5 6 6 6 6 5 4 4 4 4 4 5 4 4 4 4 4 4 4 4 4 5 5 5
6 6 6 7 8 7 7 7 7 7 7 7 7 6 5 5 5 5 5 5 6 6 6 6 6 4 4 4 4 4 4 4 5 4 4 4 4 4 4 4 4 5 5 5
11 10 9 8 8 8 8 7 7 7 7 7 6 5 6 7 7 7 6 5 5 5 6 6 5 4 4 4 4 4 4 4 4 4 4 4 4 4 4 4 4 5 5 5
9 10 9 9 8 7 8 8 7 7 6 6 6 7 7 8 7 6 5 5 6 6 5 5 5 5 5 5 4 4 4 4 4 4 4 5 4 4 4 4 4 4 4 4
7 7 7 7 7 6 7 7 6 6 6 6 6 7 7 7 6 6 6 7 6 5 4 4 4 5 5 5 5 4 4 4 5 4 4 4 4 4 4 4 4 4 4 4
6 6 6 6 6 7 6 6 6 6 6 6 7 8 8 7 6 5 6 6 5 4 4 5 4 4 4 4 5 4 4 5 5 4 4 4 4 4 4 4 4 4 4 4
6 6 6 6 6 6 6 5 6 6 6 6 7 7 6 6 6 6 7 6 4 5 4 4 4 5 5 5 4 4 5 5 5 4 5 5 4 5 5 5 4 4 4 4
6 6 6 6 6 6 5 5 6 6 7 7 7 7 7 6 5 5 6 5 4 6 5 5 5 7 7 5 4 5 5 5 5 5 5 5 5 5 5 5 5 4 4 4
6 6 6 5 4 5 7 7 5 5 6 7 7 7 6 5 5 6 5 5 6 7 5 6 7 7 7 4 4 5 5 5 5 5 5 5 5 5 5 5 5 4 5 5
6 6 5 5 6 6 7 5 5 5 6 5 6 6 6 5 5 5 4 5 6 6 5 6 8 8 6 4 4 5 5 5 5 4 5 5 5 5 5 5 5 5 5 5
6 6 6 7 6 6 5 5 5 5 5 5 5 5 4 4 4 4 4 5 6 6 5 4 5 6 5 4 5 5 5 5 5 5 5 5 5 5 5 5 6 5 5 5
6 6 5 5 5 5 5 5 6 6 6 6 5 5 4 4 4 4 5 4 4 4 4 4 4 4 4 4 4 4 4 4 4 4 4 4 4 5 5 5 5 5 5 5
Wind_Direction
272 276 267 264 258 236 230 241 249 265 271 279 281 273 277 294 315 336 344 350 354 354 353 357 3 5 9 11 13 17 21 22 20 16 16 19 20 18 16 18 16 26 26 17
282 269 272 266 259 244 240 244 250 267 276 278 264 245 256 271 285 305 319 329 340 344 346 349 354 356 2 5 6 14 20 17 15 16 17 16 14 14 15 14 16 22 19 6
287 311 295 266 247 214 216 221 222 239 259 246 252 249 247 246 251 258 282 304 319 331 337 340 344 348 352 353 359 12 15 11 12 13 15 12 10 12 11 8 12 16 6 355
301 313 263 30 68 210 227 241 229 253 266 255 259 270 253 236 234 248 263 285 303 315 325 331 336 340 342 348 358 6 9 8 7 8 9 8 9 9 5 2 2 3 357 345
283 294 284 289 191 193 229 270 237 249 266 269 279 287 255 225 227 236 245 261 281 299 310 318 328 333 336 347 356 3 2 359 358 359 1 2 3 359 355 353 352 349 343 340
248 274 266 356 93 188 226 262 286 249 253 235 206 261 271 200 216 233 242 247 265 291 307 314 324 327 331 340 349 351 346 345 348 351 353 355 351 346 344 343 341 337 334 330
233 253 272 299 179 178 230 327 331 268 249 217 225 259 296 189 212 221 226 237 248 270 284 299 311 310 312 323 332 332 332 335 342 345 346 345 343 340 340 341 342 339 330 329
205 228 257 142 151 206 285 329 290 276 256 237 247 265 246 214 212 209 214 225 237 250 268 284 289 289 292 304 318 323 326 332 338 339 341 338 339 340 341 343 344 344 339 336
217 237 312 185 224 263 284 279 281 276 266 243 245 249 237 229 221 216 218 223 234 246 260 273 276 278 281 300 314 316 322 327 330 333 337 337 335 336 337 339 339 336 335 332
260 262 260 256 257 263 264 268 277 272 261 238 245 245 237 229 225 225 226 227 232 242 251 261 265 270 280 293 299 300 309 315 319 323 329 333 331 328 330 331 331 330 330 327
254 273 286 258 250 273 276 270 271 268 256 245 246 244 237 235 231 228 227 229 230 237 248 258 264 269 280 286 287 291 298 306 312 317 320 323 323 321 319 319 322 321 320 322
245 249 249 277 294 297 281 273 268 265 263 252 239 242 242 242 236 230 228 227 233 244 253 260 263 266 273 282 280 285 294 303 307 310 313 316 320 322 321 320 329 334 336 334
255 272 267 279 283 280 276 279 274 263 258 257 249 239 237 242 238 233 231 230 234 242 249 255 258 263 269 277 278 279 286 293 296 300 304 310 315 318 321 324 329 335 342 343
245 255 266 263 271 281 282 282 276 270 264 255 249 243 235 237 237 233 234 236 239 243 247 249 252 259 268 270 274 278 283 285 288 290 297 300 304 308 310 315 321 325 332 338
241 235 249 272 280 280 283 279 271 268 266 262 249 239 235 236 238 240 241 238 236 240 244 246 251 260 264 263 266 270 274 279 283 289 289 291 294 299 303 307 310 316 327 335
253 247 248 256 264 271 272 266 264 266 263 259 253 248 245 245 247 245 236 224 229 238 242 244 251 259 256 254 261 264 266 277 285 284 283 287 291 294 297 304 307 311 320 329
241 247 242 252 258 261 259 257 259 263 262 257 255 254 249 245 247 244 237 232 237 244 242 242 250 255 248 247 255 263 268 269 271 276 275 278 284 285 287 292 297 302 306 320
237 244 244 249 255 260 264 262 260 259 257 256 253 245 237 236 241 246 244 238 242 250 247 245 248 248 245 245 251 257 259 264 266 270 274 275 280 281 282 284 290 294 301 311
240 244 248 249 251 253 257 259 259 257 255 247 239 240 242 244 247 247 239 230 235 247 251 243 240 241 246 244 247 250 253 259 263 267 271 276 277 277 279 281 284 287 292 298
242 244 246 250 250 246 250 256 256 255 251 243 242 247 249 248 244 238 232 235 238 247 250 239 238 243 245 241 238 243 246 251 257 263 267 270 273 275 276 276 277 281 284 285
241 241 240 244 250 250 246 245 243 248 250 240 238 242 246 248 239 230 233 246 250 241 236 227 230 241 244 246 237 243 244 248 251 255 260 266 271 273 275 273 272 274 278 281
237 238 243 246 250 257 255 246 241 244 246 244 244 244 243 243 238 238 240 247 251 227 227 229 233 241 245 243 240 242 245 248 250 252 256 258 263 267 269 269 268 271 272 274
239 240 243 245 248 258 263 252 241 239 240 241 240 239 240 242 235 237 251 245 235 228 229 234 240 241 239 235 239 241 245 249 250 252 255 256 257 261 263 264 263 264 267 269
243 243 244 246 244 251 258 258 246 244 244 246 243 237 236 241 244 240 252 238 230 233 237 237 236 236 232 234 237 241 246 249 252 255 256 256 256 257 256 257 258 260 262 265
239 242 240 234 241 250 255 256 253 252 251 251 250 243 237 236 240 245 244 238 234 234 241 237 233 232 229 233 234 240 245 248 253 256 255 257 258 257 255 254 254 256 260 262
236 239 241 241 247 252 253 249 252 252 249 253 257 251 243 238 236 235 234 237 236 235 236 234 231 230 231 233 238 243 247 252 255 256 256 257 258 259 258 256 257 256 258 260
236 240 243 251 250 240 238 239 242 245 242 242 254 252 242 235 231 229 230 231 230 231 233 233 230 229 232 235 241 245 246 247 248 251 254 256 258 259 260 258 257 258 258 258
Height
1492 1490 1490 1487 1486 1487 1488 1483 1480 1473 1472 1470 1472 1473 1473 1473 1472 1470 1468 1465 1462 1460 1457 1454 1450 1447 1444 1442 1440 1437 1435 1433 1431 1429 1428 1426 1425 1424 1423 1423 1422 1421 1421 1422
1489 1488 1488 1486 1482 1482 1483 1482 1479 1476 1473 1470 1472 1473 1473 1472 1471 1470 1468 1466 1464 1461 1458 1455 1452 1449 1446 1443 1441 1439 1437 1435 1433 1431 1429 1426 1425 1424 1422 1421 1420 1419 1419 1419
1484 1485 1484 1475 1474 1476 1477 1476 1476 1473 1469 1470 1471 1471 1471 1471 1470 1469 1468 1466 1464 1462 1459 1456 1453 1450 1447 1445 1443 1440 1438 1436 1434 1432 1429 1428 1426 1424 1422 1420 1419 1418 1418 1417
1488 1483 1478 1471 1474 1474 1474 1473 1473 1471 1469 1469 1469 1470 1469 1469 1468 1468 1467 1466 1464 1462 1459 1457 1454 1451 1449 1446 1444 1442 1439 1437 1435 1432 1430 1428 1426 1424 1422 1420 1418 1417 1416 1415
1490 1482 1472 1470 1473 1474 1474 1469 1469 1469 1468 1468 1469 1468 1467 1466 1467 1467 1466 1465 1463 1461 1459 1456 1454 1452 1449 1447 1445 1443 1440 1438 1435 1433 1430 1428 1426 1423 1421 1419 1417 1416 1414 1413
1491 1486 1474 1467 1473 1474 1475 1467 1466 1467 1466 1467 1467 1465 1463 1464 1464 1464 1464 1463 1461 1460 1458 1456 1454 1452 1449 1447 1445 1442 1440 1438 1435 1433 1431 1428 1425 1423 1420 1418 1416 1414 1412 1411
1489 1484 1470 1470 1473 1474 1470 1464 1466 1465 1465 1465 1464 1463 1463 1462 1462 1462 1461 1461 1459 1458 1456 1455 1453 1451 1448 1446 1444 1442 1440 1438 1435 1433 1430 1428 1425 1422 1419 1417 1414 1412 1410 1408
1485 1482 1472 1471 1471 1470 1466 1465 1464 1463 1463 1462 1462 1461 1460 1459 1459 1459 1459 1458 1457 1456 1455 1453 1451 1449 1447 1445 1443 1441 1439 1436 1434 1432 1429 1426 1423 1421 1418 1415 1413 1410 1408 1406
1477 1471 1468 1468 1467 1466 1465 1464 1462 1461 1460 1460 1459 1458 1458 1457 1457 1457 1456 1456 1455 1454 1452 1451 1449 1447 1445 1444 1441 1439 1437 1435 1433 1430 1428 1425 1422 1419 1417 1414 1411 1409 1406 1404
1475 1466 1466 1465 1464 1463 1462 1461 1460 1459 1458 1457 1456 1456 1455 1455 1454 1454 1454 1453 1452 1451 1449 1448 1447 1445 1443 1441 1440 1438 1435 1433 1431 1428 1426 1423 1421 1418 1415 1412 1410 1408 1405 1402
1470 1464 1462 1460 1460 1459 1458 1457 1456 1455 1455 1454 1454 1453 1453 1452 1451 1451 1451 1450 1449 1448 1447 1445 1444 1442 1441 1439 1437 1435 1433 1431 1428 1426 1424 1421 1419 1417 1414 1411 1409 1407 1404 1401
1460 1459 1460 1458 1457 1456 1455 1453 1452 1451 1451 1451 1451 1450 1449 1448 1448 1448 1447 1447 1446 1445 1444 1442 1441 1439 1438 1436 1434 1433 1431 1429 1426 1424 1422 1419 1417 1414 1412 1410 1407 1404 1402 1400
1457 1456 1456 1454 1453 1453 1451 1450 1449 1448 1447 1446 1446 1446 1445 1445 1444 1444 1443 1443 1442 1441 1440 1439 1437 1436 1435 1433 1432 1430 1428 1426 1424 1422 1420 1417 1415 1412 1410 1408 1405 1403 1400 1398
1453 1453 1451 1450 1449 1449 1447 1446 1445 1444 1443 1443 1442 1441 1441 1440 1440 1440 1439 1439 1439 1438 1436 1435 1434 1433 1431 1430 1428 1427 1425 1423 1422 1420 1417 1415 1413 1411 1408 1405 1403 1400 1398 1396
1448 1448 1447 1446 1445 1444 1443 1442 1441 1440 1439 1438 1438 1437 1437 1436 1436 1435 1435 1435 1434 1433 1432 1431 1430 1429 1428 1426 1425 1423 1422 1420 1418 1417 1415 1413 1411 1409 1406 1404 1401 1399 1396 1394
1443 1443 1442 1441 1440 1440 1439 1438 1437 1435 1435 1434 1433 1433 1432 1432 1431 1431 1430 1430 1429 1428 1428 1427 1426 1425 1424 1422 1421 1420 1418 1417 1415 1413 1412 1410 1408 1406 1404 1402 1399 1397 1394 1392
1438 1437 1436 1436 1435 1435 1434 1434 1433 1432 1431 1430 1429 1429 1428 1427 1426 1426 1425 1425 1425 1424 1423 1422 1421 1420 1419 1418 1417 1416 1414 1413 1411 1410 1408 1407 1405 1403 1402 1400 1397 1395 1393 1391
1432 1432 1432 1432 1431 1430 1430 1429 1428 1427 1426 1426 1425 1424 1423 1422 1422 1421 1421 1420 1420 1419 1418 1418 1417 1416 1415 1414 1413 1412 1410 1409 1407 1406 1404 1403 1402 1400 1399 1397 1395 1393 1391 1389
1426 1426 1427 1427 1426 1426 1425 1425 1424 1423 1422 1421 1420 1419 1419 1418 1417 1417 1416 1415 1414 1413 1413 1413 1412 1411 1411 1410 1409 1407 1406 1405 1403 1402 1401 1400 1398 1397 1396 1394 1393 1391 1389 1387
1422 1422 1422 1422 1422 1421 1421 1420 1419 1418 1418 1417 1416 1415 1414 1413 1413 1412 1411 1410 1409 1409 1408 1408 1407 1407 1406 1405 1404 1403 1402 1401 1399 1398 1397 1396 1395 1394 1392 1391 1389 1388 1386 1385
1418 1418 1417 1417 1417 1417 1416 1415 1414 1413 1413 1412 1411 1410 1409 1408 1408 1407 1406 1405 1405 1404 1404 1403 1403 1402 1401 1400 1399 1398 1397 1396 1395 1394 1393 1392 1391 1390 1389 1387 1386 1385 1383 1382
1413 1413 1413 1413 1412 1412 1411 1410 1409 1408 1408 1407 1406 1405 1404 1403 1402 1401 1401 1400 1400 1399 1399 1398 1398 1397 1397 1396 1395 1394 1393 1392 1391 1390 1389 1388 1387 1386 1385 1383 1382 1381 1380 1379
1409 1409 1408 1408 1408 1407 1406 1405 1404 1403 1402 1401 1401 1400 1399 1398 1397 1396 1395 1395 1395 1394 1394 1393 1393 1393 1392 1391 1390 1389 1388 1387 1386 1386 1385 1384 1383 1382 1380 1379 1378 1377 1376 1375
1405 1404 1404 1403 1403 1401 1400 1399 1399 1398 1397 1396 1395 1395 1394 1393 1392 1392 1391 1390 1390 1389 1388 1388 1388 1387 1387 1386 1385 1384 1383 1383 1382 1381 1380 1379 1378 1377 1376 1375 1374 1374 1373 1372
1400 1399 1399 1398 1397 1396 1395 1394 1393 1392 1391 1390 1389 1389 1388 1388 1387 1387 1386 1385 1385 1384 1383 1383 1382 1382 1381 1381 1380 1379 1379 1378 1377 1377 1376 1375 1374 1373 1372 1371 1370 1369 1369 1368
1394 1394 1393 1392 1392 1391 1389 1388 1387 1386 1385 1384 1383 1383 1383 1383 1382 1381 1381 1380 1380 1379 1378 1378 1377 1377 1376 1376 1375 1375 1374 1373 1373 1372 1371 1370 1370 1369 1368 1367 1366 1365 1364 1363
1388 1387 1387 1386 1385 1384 1383 1382 1381 1380 1380 1379 1378 1378 1377 1377 1376 1376 1375 1375 1374 1374 1373 1373 1372 1372 1371 1371 1370 1370 1369 1369 1368 1367 1367 1366 1365 1364 1364 1363 1362 1361 1360 1359